Home   Weather   Zabrze   Past weeks

Flag for Poland Past Weather in Zabrze, Poland — Yesterday and Last 2 Weeks

Now
39 °F

Fog.


Feels Like: 39 °F
Forecast: 41 / 64 °F
Wind: 2 mph from East

Location: Katowice Airport

Current Time: Sep 25, 2016 at 2:23:49 AM

Latest Report: Sep 25, 2016 at 2:00 AM


Visibility: 0 mi

Pressure: 30.27 "Hg

Humidity: 100%

Dew Point: 39 °F

Location of ZabrzeLocation

Past Weather in Zabrze — Graph

°F

Zabrze Temperature Yesterday

Maximum temperature yesterday: 64 °F (at 2:30 PM)
Minimum temperature yesterday: 37 °F (at 5:30 AM)
Average temperature yesterday: 50 °F

High & Low Weather Summary for the Past Weeks

 TemperatureHumidityPressure
High82 °F (Sep 10, 12:30 PM)100% (Sep 10, 2:30 AM)30.30 "Hg (Sep 10, 2:30 AM)
Low32 °F (Sep 22, 6:00 AM)31% (Sep 14, 2:30 PM)29.83 "Hg (Sep 17, 5:00 AM)
Average58 °F80%30.06 "Hg
* Reported Sep 10 1:00 AM — Sep 25 1:00 AM, Zabrze, Weather by CustomWeather, © 2016

Note: Actual official high and low records may vary slightly from our data, if they occured in-between our weather recording intervals... More about our weather records

Advertising

Zabrze Weather History for the Previous 24 Hours

Scroll right to see more
 ConditionsComfort  
Time TempWeatherWind HumidityBarometerVisibility
1:00 AM
Sun, Sep 25
41 °FFog.1 mph100%30.27 "Hg0 mi
12:30 AM41 °FFog.1 mph100%30.27 "Hg0 mi
12:00 AM43 °FFog.1 mph93%30.27 "Hg0 mi
11:30 PM
Sat, Sep 24
43 °FFog.1 mph100%30.27 "Hg0 mi
11:00 PM43 °FFog.1 mph100%30.27 "Hg0 mi
10:30 PM45 °FFog.1 mph100%30.27 "Hg0 mi
10:00 PM45 °FFog.1 mph100%30.27 "Hg0 mi
9:30 PM46 °FFog.1 mph100%30.27 "Hg0 mi
9:00 PM48 °FFog.1 mph94%30.27 "Hg0 mi
8:30 PM48 °FFog.1 mph100%30.27 "Hg0 mi
8:00 PM50 °FLight fog.2 mph100%30.27 "Hg0 mi
7:30 PM54 °FLight fog.2 mph94%30.27 "Hg0 mi
7:00 PM54 °FCool.1 mph100%30.27 "Hg1 mi
6:30 PM55 °FFog.1 mph100%30.27 "Hg2 mi
6:00 PM57 °FFog.2 mph94%30.27 "Hg2 mi
5:30 PM57 °FBroken clouds.5 mph94%30.27 "Hg4 mi
5:00 PM59 °FSprinkles. Partly sunny.2 mph88%30.24 "HgN/A
4:30 PM59 °FScattered clouds.7 mph82%30.24 "HgN/A
4:00 PM61 °FSprinkles. Scattered clouds.9 mph77%30.24 "HgN/A
3:30 PM64 °FPassing clouds.10 mph64%30.24 "HgN/A
3:00 PM64 °FScattered clouds.12 mph64%30.27 "HgN/A
2:30 PM64 °FScattered clouds.13 mph64%30.27 "HgN/A
2:00 PM63 °FScattered clouds.13 mph68%30.27 "HgN/A
1:30 PM63 °FSunny.12 mph68%30.27 "Hg10 mi
1:00 PM61 °FSunny.9 mph68%30.30 "Hg10 mi
12:30 PM59 °FPassing clouds.9 mph72%30.30 "HgN/A
12:00 PM59 °FPassing clouds.9 mph72%30.27 "HgN/A
11:30 AM59 °FScattered clouds.8 mph72%30.30 "HgN/A
11:00 AM57 °FSunny.7 mph77%30.30 "Hg10 mi
10:30 AM55 °FSunny.8 mph82%30.30 "Hg10 mi
10:00 AM54 °FClear.7 mph88%30.30 "Hg6 mi
9:30 AM54 °FClear.6 mph82%30.30 "Hg5 mi
9:00 AM50 °FFog.3 mph94%30.30 "Hg3 mi
8:30 AM46 °FFog.1 mph93%30.30 "Hg3 mi
8:00 AM43 °FFog.1 mph100%30.27 "Hg2 mi
7:30 AM41 °FFog.1 mph100%30.27 "Hg2 mi
7:00 AM39 °FFog.3 mph100%30.27 "Hg2 mi
6:30 AM37 °FFog.1 mph100%30.27 "Hg1 mi
6:00 AM39 °FFog.2 mph100%30.27 "Hg3 mi
5:30 AM37 °FClear.3 mph100%30.27 "Hg4 mi
5:00 AM39 °FFog.1 mph100%30.27 "Hg3 mi
4:30 AM39 °FFog.2 mph100%30.27 "Hg4 mi
4:00 AM39 °FFog.1 mph100%30.27 "Hg4 mi
3:30 AM39 °FFog.2 mph100%30.27 "Hg2 mi
3:00 AM39 °FFog.2 mph93%30.27 "Hg3 mi
2:30 AM39 °FFog.2 mph100%30.27 "Hg2 mi
2:00 AM41 °FFog.3 mph100%30.27 "Hg3 mi
Weather by CustomWeather, © 2016

See weather overviewHow to use our weather pages